Weather History for KFAF - December, 2012

Change the Weather History Date:

Saturday, December 22, 2012

  Actual Average Record
Temperature  
Mean Temperature 42 °F -  
Max Temperature 48 °F 48 °F 76 °F (2013)
Min Temperature 35 °F 33 °F 23 °F (2005)
Degree Days  
Heating Degree Days 24    
Moisture  
Dew Point 23 °F    
Average Humidity 49    
Maximum Humidity 58    
Minimum Humidity 35    
Precipitation  
Precipitation 0.00 in - - ()
Sea Level Pressure  
Sea Level Pressure 29.88 in    
Wind  
Wind Speed 12 mph (WNW)    
Max Wind Speed 23 mph    
Max Gust Speed 34 mph    
Visibility 10 miles    
Events      
Averages and records for this station are not official NWS values.
T = Trace of Precipitation, MM = Missing Value Source: NWS Daily Summary

Daily Weather History Graph

Daily Weather History Graph

Search for Another Location

Airport or City:

Trip Planner

Search our weather history database for the weather conditions in past years. The results will help you decide how hot, cold, wet, or windy it might be!

Date:

Astronomy

Dec. 22, 2012 Rise Set
Actual Time 7:17 AM EST 4:53 PM EST
Civil Twilight 6:47 AM EST 5:22 PM EST
Nautical Twilight 6:15 AM EST 5:55 PM EST
Astronomical Twilight 5:43 AM EST 6:27 PM EST
Moon 1:06 PM EST (12/22) 2:04 AM EST (12/22)
Length of Visible Light 10h 34m
Length of Day
9h 36m
Waxing Gibbous, 73% of the Moon is Illuminated
Dec 22
Waxing Gibbous
Dec 28
Full
Jan 4
Last Quarter
Jan 11
New
Jan 18
First Quarter

Hourly Weather History & Observations

Time (EST) Temp. Windchill Dew Point Humidity Pressure Visibility Wind Dir Wind Speed Gust Speed Precip Events Conditions
12:55 AM 35.8 °F 29.4 °F 22.5 °F 58% 29.68 in 10.0 mi West 8.1 mph - N/A   Clear
1:55 AM 36.0 °F 27.5 °F 22.1 °F 57% 29.70 in 10.0 mi West 12.7 mph 23.0 mph N/A   Clear
2:55 AM 36.3 °F 28.0 °F 22.1 °F 56% 29.71 in 10.0 mi West 12.7 mph 17.3 mph N/A   Clear
3:55 AM 36.0 °F 27.1 °F 21.9 °F 57% 29.72 in 10.0 mi West 13.8 mph 21.9 mph N/A   Clear
4:55 AM 36.0 °F 27.1 °F 21.7 °F 56% 29.74 in 10.0 mi West 13.8 mph 20.7 mph N/A   Clear
5:55 AM 36.3 °F 28.0 °F 21.7 °F 56% 29.77 in 10.0 mi West 12.7 mph 19.6 mph N/A   Clear
6:55 AM 36.1 °F 28.7 °F 22.1 °F 57% 29.80 in 10.0 mi West 10.4 mph 19.6 mph N/A   Mostly Cloudy
7:55 AM 36.5 °F 29.7 °F 22.8 °F 58% 29.82 in 10.0 mi West 9.2 mph - N/A   Clear
8:55 AM 39.2 °F 31.2 °F 23.5 °F 53% 29.85 in 10.0 mi WNW 13.8 mph 19.6 mph N/A   Clear
9:55 AM 43.0 °F 33.8 °F 25.5 °F 50% 29.87 in 10.0 mi WNW 23.0 mph 34.5 mph N/A   Clear
10:55 AM 45.1 °F 37.3 °F 24.3 °F 44% 29.88 in 10.0 mi NW 19.6 mph 33.4 mph N/A   Clear
11:55 AM 46.6 °F - 24.1 °F 41% 29.88 in 10.0 mi WNW 18.4 mph 25.3 mph N/A   Clear
12:55 PM 47.5 °F - 22.8 °F 38% 29.87 in 10.0 mi WNW 16.1 mph 29.9 mph N/A   Clear
1:55 PM 48.4 °F - 22.3 °F 36% 29.87 in 10.0 mi WNW 20.7 mph 28.8 mph N/A   Clear
2:55 PM 48.7 °F - 22.3 °F 35% 29.89 in 10.0 mi NW 16.1 mph - N/A   Clear
3:55 PM 48.0 °F - 22.1 °F 36% 29.91 in 10.0 mi WNW 13.8 mph - N/A   Clear
4:55 PM 45.7 °F 41.0 °F 23.5 °F 42% 29.94 in 10.0 mi WNW 9.2 mph - N/A   Clear
5:55 PM 44.6 °F 42.2 °F 22.6 °F 42% 29.96 in 10.0 mi West 4.6 mph - N/A   Clear
6:55 PM 42.8 °F 39.3 °F 23.4 °F 46% 30.00 in 10.0 mi West 5.8 mph - N/A   Clear
7:55 PM 41.5 °F 37.1 °F 22.8 °F 47% 30.02 in 10.0 mi WNW 6.9 mph - N/A   Clear
8:55 PM 40.8 °F 36.2 °F 22.8 °F 49% 30.02 in 10.0 mi West 6.9 mph - N/A   Clear
9:55 PM 39.9 °F 33.9 °F 23.4 °F 52% 30.04 in 10.0 mi WNW 9.2 mph - N/A   Clear
10:55 PM 39.2 °F 35.9 °F 22.3 °F 51% 30.05 in 10.0 mi West 4.6 mph - N/A   Clear
11:55 PM 37.0 °F 34.5 °F 23.4 °F 58% 30.05 in 10.0 mi WNW 3.5 mph - N/A   Clear